Location: Biltmore Gardens
(41.6070°N, 83.4666°W)
Time: 14:22:34
(UTC+00:00)

Cosmos 2058 - Pass Details

Date: 14 July 2020
Orbit: 561 x 584 km, 82.5° (Epoch: 04 August)

Event Time Altitude Azimuth Distance (km) Brightness Sun altitude
Exits shadow 02:33:45 20° 156° (SSE) 1,332 4.2 -13.5°
Maximum altitude 02:36:13 44° 93° (E) 796 3.3 -13.8°
Drops below altitude 10° 02:40:09 10° 21° (NNE) 1,874 5.9 -14.3°
Sets 02:42:23 0° 15° (NNE) 2,772 6.9 -14.6°
